Lexington Weather

Lexington, Massachusetts, USA

39°F
1/28/2023 9:25pm 
  • Lexington Conditions: Clear
  • Temperature: 38.8°F / 3.8°CColder 0.4°F than last hour.
  • Dew Point: 27.3°FIncreased 0.3°Fsince last hour.
  • Relative Humidity: 63%Increased 2.0% since last hour.
  • Wind: Calm, 10-min avg: Calm, gust: None
  • Barometer: 30.25 inRising 0.02  inHg/hr Rising Slowly
  • Visibility: 10 miles
  • Rain Today: 0.00 in
  •   

Regional Weather Roundup
for Boston, MA

        
000
ASUS41 KBOX 251710
RWRBOX

REGIONAL WEATHER ROUNDUP
NATIONAL WEATHER SERVICE BOSTON/NORTON MA
1200 PM EST WED JAN 25 2023

NOTE:  "FAIR" INDICATES FEW OR NO CLOUDS BELOW 12,000 FEET WITH NO 
SIGNIFICANT WEATHER AND/OR OBSTRUCTIONS TO VISIBILITY.

MAZALL-251800-
EASTERN MASSACHUSETTS
  
CITY           SKY/WX    TMP DP  RH WIND       PRES   REMARKS
BOSTON         CLOUDY    36  29  75 E3        30.29F                  
BEVERLY        PTSUNNY   36  29  75 VRB5      30.27F                  
LAWRENCE       CLOUDY    37  27  67 E7        30.29F WCI  32          
BEDFORD        CLOUDY    37  27  67 E7        30.27F WCI  32          
NORWOOD        CLOUDY    37  27  67 CALM      30.29F                  
MARSHFIELD     CLOUDY    37  30  75 CALM      30.30S                  
PLYMOUTH       CLOUDY    37  27  67 VRB3      30.30R                  
TAUNTON          N/A    N/A N/A N/A MISG      30.28F                  
NEW BEDFORD    CLOUDY    39  26  59 CALM      30.26F                  
$$

MAZALL-251800-
CAPE COD AND THE ISLANDS
  
CITY           SKY/WX    TMP DP  RH WIND       PRES   REMARKS
FALMOUTH       SUNNY     37  27  65 S6        30.32R                  
HYANNIS        CLOUDY    38  30  73 SW7       30.30R                  
CHATHAM        CLOUDY    40  30  67 S5        30.31R                  
PROVINCETOWN   CLOUDY    39  30  70 SE3       30.29F                  
NANTUCKET      PTSUNNY   40  28  62 SE6       30.31R                  
MARTHAS VNYRD  PTSUNNY   40  25  55 CALM      30.30S                  
$$
 
MAZALL-251800-
CENTRAL AND WESTERN MASSACHUSETTS
  
CITY           SKY/WX    TMP DP  RH WIND       PRES   REMARKS
WORCESTER      CLOUDY    33  25  72 E3        30.23F                  
FITCHBURG      CLOUDY    34  24  67 CALM      30.28F                  
ORANGE         CLOUDY    31  27  85 CALM      30.27F                  
SPRINGFIELD    FLURRIES  34  25  70 CALM      30.25F                  
WESTFIELD      LGT SNOW  33  25  72 SW6       30.27F WCI  28          
NORTH ADAMS    LGT SNOW  31  26  82 CALM      30.24F                  
PITTSFIELD     LGT SNOW  28  24  85 CALM      30.22S VSB 1            
$$
 
RIZALL-251800-
RHODE ISLAND
  
CITY           SKY/WX    TMP DP  RH WIND       PRES   REMARKS
PROVIDENCE     CLOUDY    36  26  67 CALM      30.28F                  
NEWPORT        CLOUDY    37  23  56 E7        30.25F WCI  32          
BLOCK ISLAND   CLOUDY    37  25  61 E5        30.29F                  
SMITHFIELD     CLOUDY    34  26  72 CALM      30.26F                  
WESTERLY       CLOUDY    38  26  62 CALM      30.30S                  
$$
 
CTZALL-251800-
CONNECTICUT
  
CITY           SKY/WX    TMP DP  RH WIND       PRES   REMARKS
BRADLEY INTL   CLOUDY    34  27  75 SW5       30.30R WCI  30          
HARTFORD       CLOUDY    37  26  64 CALM      30.30F                  
BRIDGEPORT     CLOUDY    39  28  64 E8        30.29F                  
DANBURY        CLOUDY    38  21  50 VRB6      30.27F                  
GROTON         CLOUDY    41  25  53 CALM      30.29F                  
NEW HAVEN      CLOUDY    42  27  55 E9        30.28F                  
CHESTER        FAIR      37  25  60 CALM      30.28R                  
MERIDEN        CLOUDY    38  22  52 CALM      30.30S                  
WILLIMANTIC    CLOUDY    34  28  79 CALM      30.28F                  
OXFORD         CLOUDY    36  22  56 VRB3      30.26F                  
$$

MEZ002-015-021-024-NHZ003-005-008-011-012-014-VTZ005-008-251800-
NORTHERN NEW ENGLAND
  
CITY           SKY/WX    TMP DP  RH WIND       PRES   REMARKS
PORTLAND ME    CLOUDY    28  17  63 NE7       30.33S WCI  21          
BANGOR ME      MOSUNNY   21   9  59 VRB6      30.34F WCI  13          
CONCORD NH     CLOUDY    33  16  49 SE5       30.27F WCI  29          
MANCHESTER NH  CLOUDY    35  23  61 E6        30.26F WCI  30          
NASHUA NH      CLOUDY    35  29  78 E5        30.28F WCI  31          
PORTSMOUTH NH  CLOUDY    33  24  67 NE10      30.28F WCI  25          
JAFFREY NH     CLOUDY    31  24  75 VRB3      30.23F                  
KEENE NH       CLOUDY    32  27  81 CALM      30.27F                  
BURLINGTON VT  CLOUDY    25  17  72 CALM      30.22F                  
MT. WASHINGTON CLOUDY    12  -4  48 SW28        N/A  WCI  -9          
$$

NYZ052-076-251800-
EASTERN NEW YORK
  
CITY           SKY/WX    TMP DP  RH WIND       PRES   REMARKS
ALBANY         LGT SNOW  32  27  81 SE8       30.26F VSB 1   WCI  25  
NEW YORK CITY  CLOUDY    41  25  53 VRB7      30.26F                  
$$
 
ANZALL-251800-
MARINE OBSERVATIONS
  
STATION/POSITION TIME  TEMP    WIND        PRES    VSBY  WAVE
                       AIR SEA DIR/SP/G                  HT/PER
                 (UTC) (F)     (DEG/KT/KT) (MB)    (MI)  (FT/S)
BOSTON BUOY      1620      42              1026.6          1/11
BUZZARDS BAY     1600   36      CALM  /  2 1027.3S
NANTUCKET SOUND  1650   38 41  140/  4/  4 1026.7R         1
MASS BAY-STELLWA 1504   37 42   20/  8/ 10 1025.6F  1 7/8  2/11
ISLE OF SHOALS   1600   35      60/ 16/ 19 1025.3F
S OF BLOCK IS    1626      44                N/A           3/ 6
$$

......................KEY.........................
  SKY/WX - SKY CONDITION/PRESENT WEATHER
  TMP    - TEMPERATURE IN FAHRENHEIT
  DWPT   - DEWPOINT IN FAHRENHEIT
  RH     - RELATIVE HUMIDITY IN PERCENT
  WIND   - DIRECTION AND SPEED IN MPH
  PRES   - MEAN SEA LEVEL PRESSURE IN INCHES OF HG
  WCI    - WIND CHILL INDEX
  VSB    - VISIBILITY IN MILES
  HX     - HEAT INDEX
  TC     - TEMPERATURE IN CELSIUS
  VRB    - VARIABLE WIND DIRECTION
  N/A    - NOT AVAILABLE
  
      

Other recent Regional Weather Roundups

Sat Jan 28, 9:10pm EST

Sat Jan 28, 8:10pm EST

Sat Jan 28, 7:10pm EST

Sat Jan 28, 6:10pm EST

Sat Jan 28, 5:10pm EST

Sat Jan 28, 4:10pm EST

Sat Jan 28, 3:10pm EST

Sat Jan 28, 2:10pm EST

Sat Jan 28, 1:10pm EST

Sat Jan 28, 12:10pm EST

Sat Jan 28, 11:10am EST

Sat Jan 28, 10:10am EST

Sat Jan 28, 9:10am EST

Sat Jan 28, 8:10am EST

Sat Jan 28, 7:10am EST

Sat Jan 28, 6:10am EST

Sat Jan 28, 5:10am EST

Sat Jan 28, 4:10am EST

Sat Jan 28, 3:10am EST

Sat Jan 28, 2:10am EST

Sat Jan 28, 1:10am EST

Sat Jan 28, 12:10am EST

Fri Jan 27, 11:10pm EST

Fri Jan 27, 10:10pm EST

Fri Jan 27, 9:10pm EST

Fri Jan 27, 8:10pm EST

Fri Jan 27, 7:10pm EST

Fri Jan 27, 6:10pm EST

Fri Jan 27, 5:10pm EST

Fri Jan 27, 4:10pm EST

Fri Jan 27, 3:10pm EST

Fri Jan 27, 2:10pm EST

Fri Jan 27, 1:10pm EST

Fri Jan 27, 12:10pm EST

Fri Jan 27, 11:10am EST

Fri Jan 27, 10:10am EST

Fri Jan 27, 9:10am EST

Fri Jan 27, 8:10am EST

Fri Jan 27, 7:10am EST

Fri Jan 27, 6:10am EST

Fri Jan 27, 5:10am EST

Fri Jan 27, 4:10am EST

Fri Jan 27, 3:10am EST

Fri Jan 27, 2:10am EST

Fri Jan 27, 1:10am EST

Fri Jan 27, 12:10am EST

Thu Jan 26, 11:10pm EST

Thu Jan 26, 10:10pm EST

Thu Jan 26, 9:10pm EST

Thu Jan 26, 8:10pm EST

Thu Jan 26, 7:10pm EST

Thu Jan 26, 6:10pm EST

Thu Jan 26, 5:10pm EST

Thu Jan 26, 4:10pm EST

Thu Jan 26, 3:10pm EST

Thu Jan 26, 2:10pm EST

Thu Jan 26, 1:10pm EST

Thu Jan 26, 12:10pm EST

Thu Jan 26, 11:10am EST

Thu Jan 26, 10:10am EST

Thu Jan 26, 9:10am EST

Thu Jan 26, 8:10am EST

Thu Jan 26, 7:10am EST

Thu Jan 26, 6:10am EST

Thu Jan 26, 5:10am EST

Thu Jan 26, 4:10am EST

Thu Jan 26, 3:10am EST

Thu Jan 26, 2:10am EST

Thu Jan 26, 1:10am EST

Thu Jan 26, 12:10am EST

Wed Jan 25, 11:10pm EST

Wed Jan 25, 10:10pm EST

Wed Jan 25, 9:10pm EST

Wed Jan 25, 8:10pm EST

Wed Jan 25, 7:10pm EST

Wed Jan 25, 6:10pm EST

Wed Jan 25, 5:10pm EST

Wed Jan 25, 4:10pm EST

Wed Jan 25, 3:10pm EST

Wed Jan 25, 2:10pm EST

Wed Jan 25, 1:10pm EST

Wed Jan 25, 11:10am EST

Wed Jan 25, 10:10am EST

Wed Jan 25, 9:10am EST

Wed Jan 25, 8:10am EST

Wed Jan 25, 7:10am EST

Wed Jan 25, 6:10am EST

Wed Jan 25, 5:10am EST

Wed Jan 25, 4:10am EST

Wed Jan 25, 3:10am EST

Wed Jan 25, 2:10am EST

Wed Jan 25, 1:10am EST

Wed Jan 25, 12:10am EST

Tue Jan 24, 11:10pm EST

Tue Jan 24, 10:10pm EST

Tue Jan 24, 9:10pm EST

Tue Jan 24, 8:10pm EST

Tue Jan 24, 7:10pm EST

Tue Jan 24, 6:10pm EST

Tue Jan 24, 5:10pm EST

Tue Jan 24, 4:10pm EST

Tue Jan 24, 3:10pm EST

Tue Jan 24, 2:10pm EST

Tue Jan 24, 1:10pm EST

Tue Jan 24, 12:10pm EST

Tue Jan 24, 11:10am EST

Tue Jan 24, 10:10am EST

Tue Jan 24, 9:10am EST

Tue Jan 24, 8:10am EST

Tue Jan 24, 7:10am EST

Tue Jan 24, 6:10am EST

Tue Jan 24, 5:10am EST

Tue Jan 24, 4:10am EST

Tue Jan 24, 3:10am EST

Tue Jan 24, 2:10am EST

Tue Jan 24, 1:10am EST

Tue Jan 24, 12:10am EST

Mon Jan 23, 11:10pm EST

Mon Jan 23, 10:10pm EST

Mon Jan 23, 9:10pm EST

Mon Jan 23, 8:10pm EST

Mon Jan 23, 7:10pm EST

Mon Jan 23, 6:10pm EST

Mon Jan 23, 5:10pm EST

Mon Jan 23, 4:10pm EST

Mon Jan 23, 3:10pm EST

Mon Jan 23, 2:10pm EST

Mon Jan 23, 1:10pm EST

Mon Jan 23, 12:10pm EST

Mon Jan 23, 11:10am EST

Mon Jan 23, 10:10am EST

Mon Jan 23, 9:10am EST

Mon Jan 23, 8:10am EST

Mon Jan 23, 7:10am EST

Mon Jan 23, 6:10am EST

Mon Jan 23, 5:10am EST

Mon Jan 23, 4:10am EST

Mon Jan 23, 3:10am EST

Mon Jan 23, 2:10am EST

Mon Jan 23, 1:10am EST

Mon Jan 23, 12:10am EST

Sun Jan 22, 11:10pm EST

Sun Jan 22, 10:10pm EST

Sun Jan 22, 9:10pm EST

Sun Jan 22, 8:10pm EST

Sun Jan 22, 7:10pm EST

Sun Jan 22, 6:10pm EST

Sun Jan 22, 5:10pm EST

Sun Jan 22, 4:10pm EST

Sun Jan 22, 3:10pm EST

Sun Jan 22, 2:10pm EST

Sun Jan 22, 1:10pm EST

Sun Jan 22, 12:10pm EST

Sun Jan 22, 11:10am EST

Sun Jan 22, 10:10am EST

Sun Jan 22, 9:10am EST

Sun Jan 22, 8:10am EST

Sun Jan 22, 7:10am EST

Sun Jan 22, 6:10am EST

Sun Jan 22, 5:10am EST

Sun Jan 22, 4:10am EST

Sun Jan 22, 3:10am EST

Sun Jan 22, 2:10am EST

Sun Jan 22, 1:10am EST

Sun Jan 22, 12:10am EST

Sat Jan 21, 11:10pm EST

Sat Jan 21, 10:10pm EST